Regional Weather Roundup
Issued by NWS Cleveland, OH

Home | Current Version | Previous Version | Graphics & Text | Print | Product List | Glossary On
Versions: 1 2 3 4 5 6 7 8 9 10 11 12 13 14 15 16 17 18 19 20 21 22 23 24 25 26 27 28 29 30 31 32 33 34 35 36 37 38 39 40 41 42 43 44 45 46 47 48 49 50
000
ASUS41 KCLE 270300
RWRCLE
OHIO REGIONAL WEATHER ROUNDUP
NATIONAL WEATHER SERVICE WILMINGTON, OH
1000 PM EST FRI DEC 26 2014

NOTE: "FAIR" INDICATES FEW OR NO CLOUDS BELOW 12,000 FEET WITH NO
SIGNIFICANT WEATHER AND/OR OBSTRUCTIONS TO VISIBILITY.

OHZ001>008-015>018-024>027-034-035-043-044-270400-
   NORTHWEST OHIO

CITY           SKY/WX    TMP DP  RH WIND       PRES   REMARKS
DEFIANCE       CLOUDY    42  38  85 S6        30.12S
FINDLAY        CLOUDY    38  33  82 S9        30.13S
TOLEDO EXPRESS MOCLDY    39  36  89 S5        30.12S
TOLEDO METCALF MOCLDY    38  33  82 S7        30.14R
LIMA           CLOUDY    42  34  73 S9        30.13S
$$

OHZ009>014-019>023-028>033-038-089-270400-
   NORTHEAST OHIO

CITY           SKY/WX    TMP DP  RH WIND       PRES   REMARKS
CLE-HOPKINS    MOCLDY    43  34  70 S13       30.19S
CLE-LAKEFRONT  MOCLDY    46  34  62 S17       30.15F
CUY CO. ARPT   MOCLDY    45  37  76 SW13      30.17F
LORAIN-ELYRIA  MOCLDY    41  35  79 S9        30.16F
ASHTABULA      MOCLDY    41  33  73 S7        30.17S
AKRON-CANTON   MOCLDY    40  33  76 S8        30.18S
WOOSTER        NOT AVBL
MANSFIELD      PTCLDY    40  35  83 S10       30.16S
YOUNGSTOWN     CLOUDY    41  33  73 S7        30.18F
$$

OHZ042-051>053-060>062-070>072-077>081-270400-
  SOUTHWEST OHIO

CITY           SKY/WX    TMP DP  RH WIND       PRES   REMARKS
CINC-COVINGTON MOCLDY    44  32  62 S6        30.17S
CINC-LUNKEN    MOCLDY    39  36  89 CALM      30.19S
HAMILTON       PTCLDY    39  32  76 CALM      30.18S
DAYTON         NOT AVBL
WRIGHT-PAT AFB MOCLDY    43  35  75 S2        30.16S
DAYTON GENERAL MOCLDY    41  34  76 S7        30.16S
WILMINGTON     MOCLDY    41  33  73 S5        30.17S
$$

OHZ036-037-039>041-045>050-054>059-063>069-073>076-082>088-270400-
  CENTRAL AND SOUTHEAST OHIO

CITY           SKY/WX    TMP DP  RH WIND       PRES   REMARKS
COLUMBUS       MOCLDY    41  33  73 SE3       30.18S
OSU AIRPORT    PTCLDY    42  34  73 S3        30.17S
BOLTON FIELD   NOT AVBL
RICKENBACK AFB NOT AVBL
NEWARK         CLOUDY    36  32  85 CALM      30.18S
MARION         PTCLDY    40  34  79 S8        30.17R
LANCASTER      MOCLDY    39  33  79 SE5       30.19S
ZANESVILLE     CLOUDY    41  31  67 SE3       30.20S
NEW PHILLY     CLOUDY    42  33  70 S6        30.20F
$$



USA.gov is the U.S. government's official web portal to all federal, state and local government web resources and services.